Weather History for Omak, WA

Change the Weather History Date:

Sunday, November 3, 2013

  Actual Average Record
Temperature  
Mean Temperature 38 °F 41 °F  
Max Temperature 47 °F 51 °F 69 °F (1975)
Min Temperature 28 °F 31 °F 7 °F (2002)
Degree Days  
Heating Degree Days 27 24  
Month to date heating degree days 73 71  
Since 1 July heating degree days 733 731  
Cooling Degree Days 0 0  
Month to date cooling degree days 0 0  
Year to date cooling degree days 814 665  
Moisture  
Dew Point 30 °F    
Average Humidity 69    
Maximum Humidity 92    
Minimum Humidity 45    
Precipitation  
Precipitation T in 0.06 in 0.58 in (2005)
Month to date precipitation 0.33 0.18  
Year to date precipitation 9.23 10.88  
Sea Level Pressure  
Sea Level Pressure 29.95 in    
Wind  
Wind Speed 4 mph (WNW)    
Max Wind Speed 15 mph    
Max Gust Speed 20 mph    
Visibility 10 miles    
Events Rain    
T = Trace of Precipitation, MM = Missing Value Source: NWS Daily Summary

Daily Weather History Graph

Daily Weather History Graph

Search for Another Location

Airport:

Trip Planner

Search our weather history database for the weather conditions in past years. The results will help you decide how hot, cold, wet, or windy it might be!

Date:

Astronomy

Nov. 03, 2013 Rise Set
Actual Time 6:47 AM PST 4:34 PM PST
Civil Twilight 6:14 AM PST 5:07 PM PST
Nautical Twilight 5:37 AM PST 5:44 PM PST
Astronomical Twilight 5:01 AM PST 6:21 PM PST
Moon 6:58 AM PST (11/3) 4:50 PM PST (11/3)
Length of Visible Light 10h 53m
Length of Day
9h 47m
New Moon, 0% of the Moon is Illuminated
Nov 3
New Moon
Nov 9
First Quarter
Nov 17
Full
Nov 25
Last Quarter
Dec 2
New

Hourly Weather History & Observations

Time (PST) Temp. Windchill Dew Point Humidity Pressure Visibility Wind Dir Wind Speed Gust Speed Precip Events Conditions
12:53 AM 37.9 °F 32.1 °F 34.0 °F 86% 29.82 in 10.0 mi West 8.1 mph - 0.00 in Rain Light Rain
1:53 AM 37.9 °F 34.4 °F 34.0 °F 86% 29.83 in 10.0 mi WNW 4.6 mph - 0.00 in   Overcast
1:53 AM 37.9 °F 33.5 °F 33.1 °F 83% 29.84 in 10.0 mi NW 5.8 mph - N/A   Overcast
2:53 AM 37.9 °F - 32.0 °F 79% 29.84 in 10.0 mi Calm Calm - N/A   Overcast
3:53 AM 37.9 °F 35.5 °F 32.0 °F 79% 29.86 in 10.0 mi West 3.5 mph - N/A   Overcast
4:53 AM 37.0 °F 34.5 °F 33.1 °F 86% 29.88 in 10.0 mi ESE 3.5 mph - N/A   Overcast
5:53 AM 37.0 °F - 34.0 °F 89% 29.89 in 10.0 mi Calm Calm - N/A   Overcast
6:53 AM 36.0 °F - 33.1 °F 89% 29.91 in 10.0 mi Calm Calm - N/A   Overcast
7:53 AM 37.0 °F 33.3 °F 34.0 °F 89% 29.93 in 10.0 mi ESE 4.6 mph - N/A   Overcast
8:53 AM 37.9 °F - 34.0 °F 86% 29.95 in 10.0 mi Calm Calm - N/A   Overcast
9:53 AM 39.9 °F 37.8 °F 34.0 °F 79% 29.96 in 10.0 mi SSW 3.5 mph - N/A   Overcast
10:53 AM 44.1 °F 41.5 °F 33.1 °F 65% 29.96 in 10.0 mi South 4.6 mph - N/A   Mostly Cloudy
11:53 AM 44.1 °F - 33.1 °F 65% 29.96 in 10.0 mi Calm Calm - N/A   Mostly Cloudy
12:53 PM 46.0 °F - 30.0 °F 54% 29.95 in 10.0 mi Calm Calm - N/A   Overcast
1:53 PM 46.9 °F - 28.9 °F 50% 29.96 in 10.0 mi North 3.5 mph - N/A   Overcast
2:53 PM 45.0 °F 39.7 °F 24.1 °F 44% 29.97 in 10.0 mi NNE 10.4 mph - N/A   Mostly Cloudy
3:53 PM 43.0 °F 38.8 °F 27.0 °F 53% 29.98 in 10.0 mi North 6.9 mph - N/A   Overcast
4:53 PM 43.0 °F 39.5 °F 24.1 °F 47% 29.99 in 10.0 mi North 5.8 mph - N/A   Overcast
5:53 PM 37.0 °F 32.4 °F 27.0 °F 67% 30.01 in 10.0 mi NW 5.8 mph - N/A   Overcast
6:53 PM 36.0 °F 29.6 °F 26.1 °F 67% 30.02 in 10.0 mi WNW 8.1 mph - N/A   Partly Cloudy
7:53 PM 33.1 °F 27.7 °F 25.0 °F 72% 30.03 in 10.0 mi West 5.8 mph - N/A   Partly Cloudy
8:53 PM 34.0 °F 28.8 °F 25.0 °F 70% 30.04 in 10.0 mi West 5.8 mph - N/A   Clear
9:53 PM 30.0 °F 24.1 °F 23.0 °F 75% 30.06 in 10.0 mi WNW 5.8 mph - N/A   Partly Cloudy
10:53 PM 28.0 °F - 23.0 °F 81% 30.06 in 10.0 mi Calm Calm - N/A   Mostly Cloudy